TimeCST,TemperatureF,Dew PointF,Humidity,Sea Level PressureIn,VisibilityMPH,Wind Direction,Wind SpeedMPH,Gust SpeedMPH,PrecipitationIn,Events,Conditions,WindDirDegrees,DateUTC
12:54 AM,69.1,53.1,57,29.70,10.0,SSW,18.4,25.3,N/A,,Overcast,200,2012-11-11 06:54:00
1:54 AM,69.1,54.0,58,29.69,10.0,South,17.3,24.2,N/A,,Mostly Cloudy,190,2012-11-11 07:54:00
2:54 AM,69.1,55.0,61,29.65,10.0,South,17.3,27.6,N/A,,Overcast,180,2012-11-11 08:54:00
3:54 AM,64.9,57.9,78,29.64,9.0,South,12.7,25.3,0.04,Rain,Light Rain,190,2012-11-11 09:54:00
4:54 AM,63.0,57.9,84,29.64,10.0,South,9.2,-,0.09,Rain,Light Rain,190,2012-11-11 10:54:00
5:08 AM,62.6,59.0,88,29.67,2.5,SSW,9.2,19.6,0.06,Rain-Thunderstorm,Rain,210,2012-11-11 11:08:00
5:16 AM,62.6,59.0,88,29.66,4.0,SSW,9.2,18.4,0.09,Rain-Thunderstorm,Rain,200,2012-11-11 11:16:00
5:25 AM,62.6,57.2,82,29.69,5.0,SW,12.7,-,0.10,Rain,Light Rain,230,2012-11-11 11:25:00
5:32 AM,60.8,57.2,88,29.67,1.8,SW,9.2,-,0.19,Rain,Heavy Rain,220,2012-11-11 11:32:00
5:42 AM,60.8,57.2,88,29.67,3.0,SW,8.1,-,0.23,Rain,Heavy Rain,230,2012-11-11 11:42:00
5:50 AM,60.8,57.2,88,29.70,2.5,WSW,15.0,21.9,0.27,Rain-Thunderstorm,Heavy Thunderstorms and Rain,250,2012-11-11 11:50:00
5:54 AM,61.0,57.9,90,29.70,2.0,West,15.0,25.3,0.30,Rain-Thunderstorm,Heavy Thunderstorms and Rain,270,2012-11-11 11:54:00
5:56 AM,60.8,57.2,88,29.69,1.5,West,11.5,25.3,0.08,Rain-Thunderstorm,Heavy Thunderstorms and Rain,280,2012-11-11 11:56:00
6:08 AM,53.6,50.0,88,29.72,2.5,WNW,20.7,29.9,0.22,Rain-Thunderstorm,Light Thunderstorms and Rain,290,2012-11-11 12:08:00
6:14 AM,51.8,48.2,88,29.73,6.0,WNW,12.7,29.9,0.24,Rain,Rain,300,2012-11-11 12:14:00
6:23 AM,48.2,46.4,93,29.74,4.0,WNW,13.8,-,0.26,Rain-Thunderstorm,Rain,300,2012-11-11 12:23:00
6:49 AM,46.4,42.8,87,29.74,6.0,NW,12.7,18.4,0.32,Rain,Light Rain,310,2012-11-11 12:49:00
6:54 AM,45.0,43.0,93,29.73,6.0,NW,12.7,18.4,0.32,Rain,Rain,310,2012-11-11 12:54:00
7:32 AM,42.8,39.2,87,29.79,7.0,NW,13.8,23.0,0.11,Rain,Light Rain,310,2012-11-11 13:32:00
7:54 AM,42.1,39.0,89,29.80,7.0,WNW,6.9,-,0.14,Rain,Light Rain,290,2012-11-11 13:54:00
8:06 AM,41.0,37.4,87,29.82,7.0,WNW,15.0,23.0,0.01,Rain,Rain,300,2012-11-11 14:06:00
8:14 AM,41.0,37.4,87,29.82,5.0,NW,12.7,20.7,0.03,Rain,Rain,310,2012-11-11 14:14:00
8:51 AM,39.2,37.4,93,29.85,4.0,WNW,12.7,20.7,0.10,Rain,Rain,290,2012-11-11 14:51:00
8:54 AM,39.2,37.4,93,29.85,3.0,WNW,13.8,20.7,N/A,Rain,Rain,300,2012-11-11 14:54:00
9:01 AM,39.2,37.4,93,29.84,4.0,WNW,11.5,-,0.02,Rain,Rain,290,2012-11-11 15:01:00
9:54 AM,37.9,35.1,89,29.86,9.0,NNW,5.8,20.7,0.05,Rain,Light Rain,330,2012-11-11 15:54:00
10:43 AM,37.4,33.8,87,29.91,2.0,West,9.2,-,0.16,Rain,Rain,280,2012-11-11 16:43:00
10:54 AM,37.0,34.0,89,29.93,3.0,WNW,8.1,-,0.19,Rain,Rain,290,2012-11-11 16:54:00
10:59 AM,35.6,33.8,93,29.92,1.8,NW,6.9,17.3,0.04,Rain,Heavy Rain,310,2012-11-11 16:59:00
11:06 AM,35.6,33.8,93,29.90,1.5,NNW,9.2,-,0.08,Rain,Heavy Rain,330,2012-11-11 17:06:00
11:24 AM,35.6,33.8,93,29.93,2.0,WNW,11.5,16.1,0.18,Rain,Rain,290,2012-11-11 17:24:00
11:35 AM,35.6,33.8,93,29.91,8.0,NW,15.0,19.6,0.18,Rain,Light Rain,320,2012-11-11 17:35:00
11:54 AM,33.8,30.2,87,29.93,9.0,WNW,12.7,23.0,N/A,Rain,Light Rain,300,2012-11-11 17:54:00
12:15 PM,33.8,30.2,87,29.92,7.0,NW,11.5,23.0,N/A,,Overcast,310,2012-11-11 18:15:00
12:54 PM,33.1,32.0,96,29.94,9.0,WNW,13.8,19.6,N/A,,Overcast,300,2012-11-11 18:54:00
1:43 PM,33.8,32.0,93,29.97,9.0,West,11.5,19.6,N/A,,Overcast,280,2012-11-11 19:43:00
1:54 PM,33.1,30.0,89,29.96,10.0,WNW,10.4,-,N/A,,Overcast,300,2012-11-11 19:54:00
2:54 PM,33.1,28.0,82,29.99,10.0,WNW,11.5,-,N/A,,Overcast,300,2012-11-11 20:54:00
3:31 PM,33.8,26.6,75,30.00,10.0,NW,12.7,-,N/A,,Overcast,320,2012-11-11 21:31:00
3:54 PM,34.0,27.0,75,30.02,10.0,NW,6.9,16.1,N/A,,Overcast,310,2012-11-11 21:54:00
4:54 PM,34.0,26.1,73,30.04,10.0,NW,8.1,-,N/A,,Mostly Cloudy,310,2012-11-11 22:54:00
5:54 PM,34.0,26.1,73,30.09,10.0,NNW,5.8,-,N/A,,Mostly Cloudy,330,2012-11-11 23:54:00
6:01 PM,33.8,26.6,75,30.10,10.0,NW,6.9,-,N/A,,Clear,310,2012-11-12 00:01:00
6:54 PM,33.1,23.0,66,30.14,10.0,WNW,8.1,-,N/A,,Clear,300,2012-11-12 00:54:00
7:54 PM,32.0,21.9,66,30.16,10.0,NW,9.2,-,N/A,,Clear,320,2012-11-12 01:54:00
8:54 PM,32.0,21.0,64,30.20,10.0,WNW,6.9,-,N/A,,Clear,300,2012-11-12 02:54:00
9:54 PM,30.9,19.9,64,30.23,10.0,WNW,8.1,-,N/A,,Clear,300,2012-11-12 03:54:00
10:54 PM,30.0,19.0,64,30.24,10.0,West,3.5,-,N/A,,Clear,270,2012-11-12 04:54:00
11:54 PM,30.0,18.0,61,30.25,10.0,West,4.6,-,N/A,,Clear,270,2012-11-12 05:54:00